www.pogodaiklimat.ru

ПОГОДА в Луисвилле, KY

  • Прогноз погоды в Луисвилле
  • Монитор погоды в Луисвилле
  • Климат в Луисвилле

АРХИВ ПОГОДЫ в Луисвилле

Время (UTC), дата Ветер
(напр.,м/с)
 
Видим.   Явления Облачность Т
(С)
Тd
(С)
f
(%)
Тe
(С)
Тes
(С)
Комфортность

P
(гПа)

Po
(гПа)
Тmin
(С)
Tmax
(С)
R
(мм)
SD
(см)
06:53 23.03 СЗ  16 км    ясно  0.0  -3.9  75  -3  -3    1024.5  1004.3         
07:53 23.03 С  16 км    ясно  +1.1  -4.4  67  -1  -1    1024.2  1003.9         
08:53 23.03 С  16 км    ясно  +0.6  -5.0  66  -2  -2    1024.5  1004.3         
09:53 23.03 С  16 км    ясно  -1.1  -5.0  75  -4  -4    1025.3  1004.9         
10:53 23.03   16 км    ясно  -1.7  -5.6  75  -3  -3    1026.3  1005.9  -2.2  +2.8     
11:53 23.03   16 км    ясно  +0.6  -3.3  75  -0  -0    1027.4  1006.9         
12:53 23.03 СВ  16 км    ясно  +2.8  -3.9  61  +1  +3    1027.7  1007.2         
13:53 23.03   16 км    ясно  +4.4  -3.9  55  +4  +10    1028.3  1007.9         
14:53 23.03 нст  16 км    ясно  +6.7  -3.3  49  +6  +14    1028.4  1007.9         
15:53 23.03 В  16 км    ясно  +8.9  -3.3  42  +7  +16  опасность
простуды 
1027.7  1007.2         
16:53 23.03   16 км    ясно  +10.6  -4.4  35  +11  +29  опасность
простуды 
1027.5  1007.2  -2.2  +10.6     
17:53 23.03   16 км    ясно  +12.2  -3.9  32  +12  +31  опасность
простуды 
1026.4  1006.2         
18:53 23.03   16 км    ясно  +13.9  -5.0  27  +14  +31  опасность
простуды 
1025.8  1005.6         
19:53 23.03   16 км    ясно  +13.9  -7.8  21  +14  +27  опасность
простуды 
1025.3  1004.9         
20:53 23.03 Ю  16 км    ясно  +13.9  -6.7  23  +13  +18    1024.7  1004.6         
21:53 23.03   16 км    ясно  +13.9  -8.3  21  +14  +18    1024.6  1004.3         
22:53 23.03 В  16 км    ясно  +12.8  -8.9  21  +12  +13    1024.7  1004.3  +10.0  +15.0     
23:53 23.03 ЮВ  16 км    ясно  +12.2  -9.4  21  +12  +12    1024.7  1004.6         
00:53 24.03   16 км    ясно  +8.3  -6.7  34  +8  +8    1024.9  1004.6         
01:53 24.03   16 км    ясно  +8.3  -6.1  35  +8  +8    1024.9  1004.6         
02:53 24.03   16 км    ясно  +7.8  -4.4  42  +8  +8    1024.7  1004.3         
03:53 24.03 В  16 км    ясно  +8.3  -3.9  42  +8  +8    1023.8  1003.6         
04:53 24.03 В  16 км    ясно  +9.4  -7.2  30  +7  +7    1023.3  1003.3  +7.2  +12.8     
05:53 24.03 ЮЗ  16 км    ясно  +7.2  -6.1  38  +6  +6    1024.2  1003.9         
06:53 24.03 В  16 км    ясно  +7.8  -5.6  38  +7  +7    1023.6  1003.6         
07:53 24.03 В  16 км    ясно  +5.6  -2.2  57  +2  +2    1022.6  1002.6         
08:53 24.03 В  16 км    ясно  +6.7  -3.9  47  +4  +4    1022.1  1001.9         
09:53 24.03 ЮВ  16 км    ясно  +7.2  -5.0  42  +5  +5    1022.2  1002.3         
10:53 24.03   16 км    ясно  +6.1  -2.2  55  +6  +6    1022.3  1002.3  +5.0  +9.4     
11:53 24.03 В  16 км    ясно  +7.8  -2.8  47  +6  +6    1022.3  1002.3         
12:53 24.03   16 км    ясно  +9.4  -5.0  36  +9  +12    1022.6  1002.6         
13:53 24.03 Ю  16 км    ясно  +11.1  -5.0  32  +10  +14    1022.8  1002.6         
14:53 24.03   16 км    8/0 3000 м
[средняя] 
+13.3  -5.0  28  +13  +18    1022.0  1001.9         
15:53 24.03 Ю  16 км    10/0 2850 м
[средняя] 
+14.4  -3.3  29  +14  +17    1021.3  1001.3         
16:53 24.03 З  16 км  слабый дождь  10/0 2100 м
[средняя] 
+15.0  -0.6  34  +14  +16    1021.3  1001.3  +5.6  +15.6     
17:53 24.03 З  11 км  слабый дождь  10/10 1800 м  +12.8  +6.1  64  +13  +13    1020.7  1000.6         
18:53 24.03 ЮВ  16 км    10/0 2250 м
[средняя] 
+11.7  +7.2  74  +11  +15    1019.7  999.6         
19:53 24.03 ЮВ  16 км    10/10 1800 м  +12.2  +7.8  74  +11  +11    1018.7  998.6      0.8   
20:53 24.03 ЮВ  16 км    10/10 1800 м  +13.3  +8.3  72  +12  +12    1017.5  997.6         
21:53 24.03 Ю  16 км    10/10 1650 м  +13.3  +8.3  72  +13  +13    1017.5  997.6         
22:53 24.03 ЮВ  16 км    10/10 1350 м  +13.3  +8.3  72  +12  +12    1017.3  997.3  +11.7  +15.0  1.0   
23:53 24.03   16 км    8/5 1950 м
[средняя] 
+13.3  +7.2  67  +13  +13    1017.2  997.3         
00:53 25.03   16 км    5/0 2100 м
[средняя] 
+11.7  +7.8  77  +11  +11    1016.9  997.0         
01:53 25.03 Ю  16 км    8/8 1950 м  +12.8  +7.2  69  +12  +12    1016.3  996.3         
02:53 25.03 ЮВ  16 км    10/10 1650 м  +13.9  +6.1  59  +13  +13    1015.5  995.6         
03:53 25.03 З  11 км    10/8 1800 м
[средняя] 
+12.2  +7.2  71  +10  +10    1016.2  996.3         
04:53 25.03 В  11 км  слабый дождь  10/0 2100 м
[средняя] 
+10.6  +8.9  89  +8  +8    1016.4  996.6  +10.6  +13.9  3.8   
05:53 25.03 ЮВ  14 км  слабый дождь  10/2 1800 м
[средняя] 
+10.6  +8.9  89  +8  +8    1015.4  995.6         

 

Местоположение метеостанции Bowman Field Airport: широта 38.2278 долгота -85.6636 высота над уровнем моря 166 м.

В архиве по умолчанию представлена погода в Луисвилле за последние 1-2 суток. Обновление информации о фактической погоде в базе происходит ежечасно! Архивные данные за месяц целиком и за предыдущие месяцы Вы можете получить, выбрав интересующий диапазон дат из раскрывающегося списка и нажав кнопку "Ввод!".

Внимание! Архив погоды МЕТАР в базе сайта хранится не более 60 дней. Нет смысла пытаться выбрать более раннюю дату.

Внимание! Время в таблицах - всемирное. Для получения местного времени необходимо прибавить поправку, которая в Луисвилле равна -5 ч.

Ветер - указаны скорость ветра в м/с и направление, откуда дует ветер: С - северный, СВ - северо-восточный, В - восточный, ЮВ - юго-восточный, Ю - южный, ЮЗ - юго-западный, З - западный, СЗ - северо-западный.
Видимость - горизонтальная дальность видимости в метрах или километрах. При видимости от 1 до 10 км при отсутствии осадков обычно наблюдается дымка, при ухудшении видимости до 1 км и менее - туман. В сухую погоду видимость может ухудшаться дымом, пылью или мглою.
Атмосферные явления - указаны явления, наблюдавшиеся в указанный момент времени.
Облачность - указаны через наклонную черту верхняя и нижняя облачность в баллах и высота нижней границы облаков в метрах. Внимание: облачность, как и прочие метеорологические величины в США измеряются автоматическими метеостанциями. Указанные значения в баллах носят условный характер и показывают процент времени, в течение которого, в среднем, лазерный луч высотомера отражался от облаков обратно.
T - Температура воздуха - температура, измеренная на высоте 2 м над землей.
Td - Температура точки росы - температура, при понижении до которой содержащийся в воздухе водяной пар достигнет насыщения.
f - Относительная влажность воздуха - влажноcть воздуха, измеренная на высоте 2 м над землей.
Te - Эффективная температура - температура, которую ощущает одетый по сезону человек в тени. Характеристика душности погоды. При расчете учитывается влияние влажности воздуха и скорости ветра на теплоощущения человека.
Tes - Эффективная температура на солнце - температура, которую ощущает человек, с поправкой на солнечный нагрев. Характеристика знойности погоды. Зависит от высоты солнца над горизонтом, облачности и скорости ветра. Ночью, в пасмурную погоду, а также при ветре 12 м/с и более поправка равна нулю.
P - Атмосферное давление - приведенное к уровню моря атмосферное давление.
Po - Атмосферное давление - измеренное на уровне метеостанции атмосферное давление.
Tmin - Минимальная температура - минимум температуры воздуха на высоте 2 м над землей.
Tmax - Максимальная температура - максимум температуры воздуха на высоте 2 м над землей.
R - Количество осадков - Количество выпавших осадков за 3 или 6 часов, мм.
SD - Снежный покров - Высота снежного покрова, см.